Location: T�bingen+AIT
(48.5342°N, 9.0700°E)
Time: 20:29:09
(UTC+02:00)

Cosmos 1745 Rocket - Pass Details

Date: 14 September 2017
Orbit: 954 x 997 km, 83.0° (Epoch: 19 September)

Event Time Altitude Azimuth Distance (km) Brightness Sun altitude
Rises 20:33:53 0° 195° (SSW) 3,641 7.0 -9.9°
Reaches altitude 10° 20:36:22 10° 198° (SSW) 2,704 6.4 -10.2°
Maximum altitude 20:42:33 69° 281° (W) 1,043 4.4 -11.2°
Drops below altitude 10° 20:48:51 10° 5° (N) 2,753 6.5 -12.2°
Sets 20:51:25 0° 8° (N) 3,711 7.2 -12.6°
